Location: Unspecified
(43.1763°N, 79.4719°W)
Time: 18:26:44
(UTC-04:00)

Cosmos 2058 - Visible Passes

Search period start: 25 June 2017 00:00
Search period end: 05 July 2017 00:00
Orbit: 565 x 584 km, 82.5° (Epoch: 25 June)

Date Brightness Start Highest point End Pass type
(mag) Time Alt. Az. Time Alt. Az. Time Alt. Az.
25 Jun 4.6 00:15:04 20° WSW 00:16:58 29° WNW 00:20:41 10° NNW visible
25 Jun 3.9 22:41:53 23° SE 22:43:28 30° E 22:47:09 10° NNE visible
26 Jun 5.0 00:18:05 15° WSW 00:20:25 22° WNW 00:23:47 10° NNW visible
26 Jun 3.5 22:44:53 25° SE 22:46:46 39° E 22:50:43 10° NNE visible
27 Jun 5.4 00:21:05 10° WSW 00:23:53 18° WNW 00:26:45 10° NNW visible
27 Jun 3.1 22:47:52 25° SSE 22:50:05 53° E 22:54:12 10° NNE visible
28 Jun 5.6 00:25:14 10° W 00:27:23 14° WNW 00:29:32 10° NW visible
28 Jun 2.9 22:50:47 22° S 22:53:25 72° E 22:57:38 10° NNE visible
29 Jun 5.9 00:30:10 10° WNW 00:30:53 10° WNW 00:31:37 10° NW visible
29 Jun 2.9 22:53:41 18° S 22:56:47 85° W 23:01:01 10° N visible
30 Jun 3.3 22:56:32 13° SSW 23:00:09 63° W 23:04:21 10° N visible
01 Jul 3.9 22:59:29 10° SSW 23:03:32 47° WNW 23:07:38 10° N visible
02 Jul 4.4 23:03:05 10° SW 23:06:57 35° WNW 23:10:52 10° N visible
03 Jul 4.9 23:06:47 10° SW 23:10:23 27° WNW 23:14:01 10° NNW visible
04 Jul 3.8 21:33:06 10° SSE 21:36:51 32° E 21:40:37 10° NNE visible
04 Jul 5.3 23:10:37 10° WSW 23:13:50 21° WNW 23:17:05 10° NNW visible
